Weather History for Tampa Macdill AFB, FL

Change the Weather History Date:

Monday, December 3, 2012

  Actual Average Record
Temperature  
Mean Temperature 72 °F -  
Max Temperature 81 °F 73 °F 82 °F (1998)
Min Temperature 61 °F 54 °F 34 °F (2008)
Cooling Degree Days 6    
Growing Degree Days 22 (Base 50)    
Moisture  
Dew Point 62 °F    
Average Humidity 78    
Maximum Humidity 99    
Minimum Humidity 43    
Precipitation  
Precipitation 0.00 in - - ()
Sea Level Pressure  
Sea Level Pressure 30.24 in    
Wind  
Wind Speed 7 mph (East)    
Max Wind Speed 12 mph    
Max Gust Speed -    
Visibility 10 miles    
Events      
Averages and records for this station are not official NWS values.
T = Trace of Precipitation, MM = Missing Value Source: NWS Daily Summary

Daily Weather History Graph

Daily Weather History Graph

Search for Another Location

Airport:

Trip Planner

Search our weather history database for the weather conditions in past years. The results will help you decide how hot, cold, wet, or windy it might be!

Date:

Astronomy

Dec. 03, 2012 Rise Set
Actual Time 7:05 AM EST 5:34 PM EST
Civil Twilight 6:40 AM EST 5:59 PM EST
Nautical Twilight 6:11 AM EST 6:28 PM EST
Astronomical Twilight 5:42 AM EST 6:57 PM EST
Moon 10:06 PM EST (12/3) 10:39 AM EST (12/3)
Length of Visible Light 11h 19m
Length of Day
10h 28m
Waning Gibbous, 78% of the Moon is Illuminated
Dec 3
Waning Gibbous
Dec 6
Last Quarter
Dec 13
New
Dec 20
First Quarter
Dec 28
Full

Hourly Weather History & Observations

Time (EST) Temp. Heat Index Dew Point Humidity Pressure Visibility Wind Dir Wind Speed Gust Speed Precip Events Conditions
12:55 AM 64.9 °F - 64.8 °F 99% 30.23 in 10.0 mi ESE 6.9 mph - N/A   Mostly Cloudy
1:55 AM 65.7 °F - 65.1 °F 98% 30.23 in 10.0 mi East 5.8 mph - N/A   Mostly Cloudy
2:55 AM 64.9 °F - 64.4 °F 98% 30.23 in 10.0 mi ENE 6.9 mph - N/A   Mostly Cloudy
3:55 AM 64.6 °F - 64.0 °F 98% 30.22 in 10.0 mi ENE 6.9 mph - N/A   Scattered Clouds
4:55 AM 64.6 °F - 64.2 °F 99% 30.22 in 10.0 mi East 6.9 mph - N/A   Mostly Cloudy
5:55 AM 64.4 °F - 64.0 °F 99% 30.23 in 10.0 mi East 6.9 mph - N/A   Mostly Cloudy
6:55 AM 62.2 °F - 61.9 °F 99% 30.25 in 10.0 mi ENE 5.8 mph - N/A   Overcast
7:55 AM 64.8 °F - 64.6 °F 99% 30.26 in 10.0 mi ENE 5.8 mph - N/A   Mostly Cloudy
8:55 AM 68.4 °F - 66.7 °F 95% 30.28 in 10.0 mi East 9.2 mph - N/A   Overcast
9:55 AM 72.7 °F - 66.0 °F 80% 30.29 in 10.0 mi East 11.5 mph - N/A   Mostly Cloudy
10:55 AM 77.4 °F - 66.7 °F 70% 30.29 in 10.0 mi East 8.1 mph - N/A   Mostly Cloudy
11:55 AM 77.5 °F - 65.8 °F 67% 30.27 in 10.0 mi Variable 5.8 mph - N/A   Overcast
12:55 PM 79.7 °F - 65.8 °F 62% 30.24 in 10.0 mi NE 5.8 mph - N/A   Mostly Cloudy
1:55 PM 81.5 °F 83.1 °F 64.6 °F 56% 30.21 in 10.0 mi ENE 9.2 mph - N/A   Mostly Cloudy
2:55 PM 80.1 °F 80.9 °F 60.1 °F 50% 30.20 in 10.0 mi East 9.2 mph - N/A   Scattered Clouds
3:55 PM 81.7 °F 81.5 °F 57.4 °F 43% 30.19 in 10.0 mi East 8.1 mph - N/A   Scattered Clouds
4:55 PM 79.3 °F - 56.1 °F 45% 30.19 in 10.0 mi East 8.1 mph - N/A   Clear
5:55 PM 73.4 °F - 57.7 °F 58% 30.21 in 10.0 mi East 6.9 mph - N/A   Clear
6:55 PM 70.7 °F - 58.6 °F 66% 30.22 in 10.0 mi ESE 6.9 mph - N/A   Clear
7:55 PM 70.2 °F - 58.6 °F 67% 30.24 in 10.0 mi East 10.4 mph - N/A   Clear
8:55 PM 68.7 °F - 59.5 °F 72% 30.25 in 10.0 mi ESE 10.4 mph - N/A   Clear
9:55 PM 66.7 °F - 60.1 °F 79% 30.25 in 10.0 mi East 9.2 mph - N/A   Clear
10:55 PM 64.6 °F - 60.3 °F 86% 30.26 in 10.0 mi East 6.9 mph - N/A   Clear
11:55 PM 61.5 °F - 60.3 °F 96% 30.25 in 10.0 mi East 8.1 mph - N/A   Clear